Time,TemperatureF,DewpointF,PressureIn,WindDirection,WindDirectionDegrees,WindSpeedMPH,WindSpeedGustMPH,Humidity,HourlyPrecipIn,Conditions,Clouds,dailyrainin,SolarRadiationWatts/m^2,SoftwareType,DateUTC
2013-10-18 00:23:00,42.0,35.0,-100.00,NNE,30,6.0,12.0,76,0.00,,,0.00,0.000000,,2013-10-18 05:23:00,
2013-10-18 00:34:00,42.0,35.0,-100.00,NNE,30,6.0,12.0,76,0.00,,,0.00,0.000000,,2013-10-18 05:34:00,
2013-10-18 00:43:00,42.0,35.0,-100.00,NNE,30,6.0,12.0,76,0.00,,,0.00,0.000000,,2013-10-18 05:43:00,
2013-10-18 00:52:00,42.0,35.0,-100.00,NNE,30,6.0,12.0,76,0.00,,,0.00,0.000000,,2013-10-18 05:52:00,
2013-10-18 01:22:00,41.0,36.0,-100.00,NNE,29,5.0,9.0,81,0.00,,,0.00,0.000000,,2013-10-18 06:22:00,
2013-10-18 01:33:00,41.0,36.0,-100.00,NNE,29,5.0,9.0,81,0.00,,,0.00,0.000000,,2013-10-18 06:33:00,
2013-10-18 01:42:00,41.0,36.0,-100.00,NNE,29,5.0,9.0,81,0.00,,,0.00,0.000000,,2013-10-18 06:42:00,
2013-10-18 01:52:00,41.0,36.0,-100.00,NNE,29,5.0,9.0,81,0.00,,,0.00,0.000000,,2013-10-18 06:52:00,
2013-10-18 02:22:00,38.0,34.0,-100.00,NNE,29,6.0,7.0,85,0.00,,,0.00,0.000000,,2013-10-18 07:22:00,
2013-10-18 02:32:00,38.0,34.0,-100.00,NNE,29,6.0,7.0,85,0.00,,,0.00,0.000000,,2013-10-18 07:32:00,
2013-10-18 02:42:00,38.0,34.0,-100.00,NNE,29,6.0,7.0,85,0.00,,,0.00,0.000000,,2013-10-18 07:42:00,
2013-10-18 02:52:00,38.0,34.0,-100.00,NNE,29,6.0,7.0,85,0.00,,,0.00,0.000000,,2013-10-18 07:52:00,
2013-10-18 03:22:00,40.0,34.0,-100.00,NNE,27,6.0,11.0,80,0.00,,,0.00,0.000000,,2013-10-18 08:22:00,
2013-10-18 03:32:00,40.0,34.0,-100.00,NNE,27,6.0,11.0,80,0.00,,,0.00,0.000000,,2013-10-18 08:32:00,
2013-10-18 03:42:00,40.0,34.0,-100.00,NNE,27,6.0,11.0,80,0.00,,,0.00,0.000000,,2013-10-18 08:42:00,
2013-10-18 03:52:00,40.0,34.0,-100.00,NNE,27,6.0,11.0,80,0.00,,,0.00,0.000000,,2013-10-18 08:52:00,
2013-10-18 04:21:00,40.0,34.0,-100.00,NNE,27,7.0,10.0,79,0.00,,,0.00,0.000000,,2013-10-18 09:21:00,
2013-10-18 04:33:00,40.0,34.0,-100.00,NNE,27,7.0,10.0,79,0.00,,,0.00,0.000000,,2013-10-18 09:33:00,
2013-10-18 04:43:00,40.0,34.0,-100.00,NNE,27,7.0,10.0,79,0.00,,,0.00,0.000000,,2013-10-18 09:43:00,
2013-10-18 04:53:00,40.0,34.0,-100.00,NNE,27,7.0,10.0,79,0.00,,,0.00,0.000000,,2013-10-18 09:53:00,
2013-10-18 05:23:00,40.0,33.0,-100.00,North,1,6.0,10.0,77,0.00,,,0.00,0.000000,,2013-10-18 10:23:00,
2013-10-18 05:33:00,40.0,33.0,-100.00,North,1,6.0,10.0,77,0.00,,,0.00,0.000000,,2013-10-18 10:33:00,
2013-10-18 05:43:00,40.0,33.0,-100.00,North,1,6.0,10.0,77,0.00,,,0.00,0.000000,,2013-10-18 10:43:00,
2013-10-18 05:53:00,40.0,33.0,-100.00,North,1,6.0,10.0,77,0.00,,,0.00,0.000000,,2013-10-18 10:53:00,
2013-10-18 06:22:00,40.0,32.0,-100.00,North,4,8.0,14.0,72,0.00,,,0.00,0.000000,,2013-10-18 11:22:00,
2013-10-18 06:33:00,40.0,32.0,-100.00,North,4,8.0,14.0,72,0.00,,,0.00,0.000000,,2013-10-18 11:33:00,
2013-10-18 06:42:00,40.0,32.0,-100.00,North,4,8.0,14.0,72,0.00,,,0.00,0.000000,,2013-10-18 11:42:00,
2013-10-18 06:52:00,40.0,32.0,-100.00,North,4,8.0,14.0,72,0.00,,,0.00,0.000000,,2013-10-18 11:52:00,
2013-10-18 07:22:00,40.0,32.0,-100.00,NNE,26,10.0,14.0,72,0.00,,,0.00,0.000000,,2013-10-18 12:22:00,
2013-10-18 07:32:00,40.0,32.0,-100.00,NNE,26,10.0,14.0,72,0.00,,,0.00,0.000000,,2013-10-18 12:32:00,
2013-10-18 07:42:00,40.0,32.0,-100.00,NNE,26,10.0,14.0,72,0.00,,,0.00,0.000000,,2013-10-18 12:42:00,
2013-10-18 07:52:00,40.0,32.0,-100.00,NNE,26,10.0,14.0,72,0.00,,,0.00,0.000000,,2013-10-18 12:52:00,
2013-10-18 08:22:00,40.0,31.0,-100.00,NNE,12,12.0,17.0,69,0.00,,,0.00,3.000000,,2013-10-18 13:22:00,
2013-10-18 08:32:00,40.0,31.0,-100.00,NNE,12,12.0,17.0,69,0.00,,,0.00,3.000000,,2013-10-18 13:32:00,
2013-10-18 08:42:00,40.0,31.0,-100.00,NNE,12,12.0,17.0,69,0.00,,,0.00,3.000000,,2013-10-18 13:42:00,
2013-10-18 08:52:00,40.0,31.0,-100.00,NNE,12,12.0,17.0,69,0.00,,,0.00,3.000000,,2013-10-18 13:52:00,
2013-10-18 09:21:00,38.0,30.0,-100.00,NNE,19,7.0,21.0,74,0.00,,,0.00,10.000000,,2013-10-18 14:21:00,
2013-10-18 09:32:00,38.0,30.0,-100.00,NNE,19,7.0,21.0,74,0.00,,,0.00,10.000000,,2013-10-18 14:32:00,
2013-10-18 09:42:00,38.0,30.0,-100.00,NNE,19,7.0,21.0,74,0.00,,,0.00,10.000000,,2013-10-18 14:42:00,
2013-10-18 09:52:00,38.0,30.0,-100.00,NNE,19,7.0,21.0,74,0.00,,,0.00,10.000000,,2013-10-18 14:52:00,
2013-10-18 10:22:00,36.0,32.0,-100.00,North,8,7.0,15.0,86,0.02,,,0.02,25.000000,,2013-10-18 15:22:00,
2013-10-18 10:33:00,36.0,32.0,-100.00,North,8,7.0,15.0,86,0.02,,,0.02,25.000000,,2013-10-18 15:33:00,
2013-10-18 10:43:00,36.0,32.0,-100.00,North,8,7.0,15.0,86,0.02,,,0.02,25.000000,,2013-10-18 15:43:00,
2013-10-18 10:54:00,36.0,32.0,-100.00,North,8,7.0,15.0,86,0.02,,,0.02,25.000000,,2013-10-18 15:54:00,
2013-10-18 11:24:00,34.0,32.0,-100.00,North,355,7.0,11.0,94,0.05,,,0.07,47.000000,,2013-10-18 16:24:00,
2013-10-18 11:33:00,34.0,32.0,-100.00,North,355,7.0,11.0,94,0.05,,,0.07,47.000000,,2013-10-18 16:33:00,
2013-10-18 11:42:00,34.0,32.0,-100.00,North,355,7.0,11.0,94,0.05,,,0.07,47.000000,,2013-10-18 16:42:00,
2013-10-18 11:53:00,34.0,32.0,-100.00,North,355,7.0,11.0,94,0.05,,,0.07,47.000000,,2013-10-18 16:53:00,
2013-10-18 12:22:00,32.0,31.0,-100.00,NNW,329,6.0,9.0,96,0.00,,,0.07,45.000000,,2013-10-18 17:22:00,
2013-10-18 12:33:00,32.0,31.0,-100.00,NNW,329,6.0,9.0,96,0.00,,,0.07,45.000000,,2013-10-18 17:33:00,
2013-10-18 12:42:00,32.0,31.0,-100.00,NNW,329,6.0,9.0,96,0.00,,,0.07,45.000000,,2013-10-18 17:42:00,
2013-10-18 12:52:00,32.0,31.0,-100.00,NNW,329,6.0,9.0,96,0.00,,,0.07,45.000000,,2013-10-18 17:52:00,
2013-10-18 13:22:00,33.0,32.0,-100.00,NW,313,6.0,10.0,97,0.00,,,0.07,99.000000,,2013-10-18 18:22:00,
2013-10-18 13:32:00,33.0,32.0,-100.00,NW,313,6.0,10.0,97,0.00,,,0.07,99.000000,,2013-10-18 18:32:00,
2013-10-18 13:42:00,33.0,32.0,-100.00,NW,313,6.0,10.0,97,0.00,,,0.07,99.000000,,2013-10-18 18:42:00,
2013-10-18 13:52:00,33.0,32.0,-100.00,NW,313,6.0,10.0,97,0.00,,,0.07,99.000000,,2013-10-18 18:52:00,
2013-10-18 14:22:00,33.0,32.0,-100.00,NW,307,5.0,9.0,98,0.05,,,0.12,95.000000,,2013-10-18 19:22:00,
2013-10-18 14:32:00,33.0,32.0,-100.00,NW,307,5.0,9.0,98,0.05,,,0.12,95.000000,,2013-10-18 19:32:00,
2013-10-18 14:42:00,33.0,32.0,-100.00,NW,307,5.0,9.0,98,0.05,,,0.12,95.000000,,2013-10-18 19:42:00,
2013-10-18 14:52:00,33.0,32.0,-100.00,NW,307,5.0,9.0,98,0.05,,,0.12,95.000000,,2013-10-18 19:52:00,
2013-10-18 15:22:00,33.0,32.0,-100.00,NW,320,7.0,10.0,98,0.07,,,0.19,103.000000,,2013-10-18 20:22:00,
2013-10-18 15:32:00,33.0,32.0,-100.00,NW,320,7.0,10.0,98,0.07,,,0.19,103.000000,,2013-10-18 20:32:00,
2013-10-18 15:42:00,33.0,32.0,-100.00,NW,320,7.0,10.0,98,0.07,,,0.19,103.000000,,2013-10-18 20:42:00,
2013-10-18 15:52:00,33.0,32.0,-100.00,NW,320,7.0,10.0,98,0.07,,,0.19,103.000000,,2013-10-18 20:52:00,
2013-10-18 16:22:00,36.0,35.0,-100.00,NNW,329,5.0,10.0,98,0.07,,,0.26,180.000000,,2013-10-18 21:22:00,
2013-10-18 16:34:00,36.0,35.0,-100.00,NNW,329,5.0,10.0,98,0.07,,,0.26,180.000000,,2013-10-18 21:34:00,
2013-10-18 16:44:00,36.0,35.0,-100.00,NNW,329,5.0,10.0,98,0.07,,,0.26,180.000000,,2013-10-18 21:44:00,
2013-10-18 16:54:00,36.0,35.0,-100.00,NNW,329,5.0,10.0,98,0.07,,,0.26,180.000000,,2013-10-18 21:54:00,
2013-10-18 17:24:00,38.0,36.0,-100.00,NW,314,6.0,10.0,94,0.00,,,0.26,272.000000,,2013-10-18 22:24:00,
2013-10-18 17:33:00,38.0,36.0,-100.00,NW,314,6.0,10.0,94,0.00,,,0.26,272.000000,,2013-10-18 22:33:00,
2013-10-18 17:43:00,38.0,36.0,-100.00,NW,314,6.0,10.0,94,0.00,,,0.26,272.000000,,2013-10-18 22:43:00,
2013-10-18 17:54:00,38.0,36.0,-100.00,NW,314,6.0,10.0,94,0.00,,,0.26,272.000000,,2013-10-18 22:54:00,
2013-10-18 18:23:00,37.0,34.0,-100.00,West,271,8.0,11.0,88,0.00,,,0.26,148.000000,,2013-10-18 23:23:00,
2013-10-18 18:34:00,37.0,34.0,-100.00,West,271,8.0,11.0,88,0.00,,,0.26,148.000000,,2013-10-18 23:34:00,
2013-10-18 18:42:00,37.0,34.0,-100.00,West,271,8.0,11.0,88,0.00,,,0.26,148.000000,,2013-10-18 23:42:00,
2013-10-18 18:53:00,37.0,34.0,-100.00,West,271,8.0,11.0,88,0.00,,,0.26,148.000000,,2013-10-18 23:53:00,
2013-10-18 19:22:00,35.0,32.0,-100.00,SW,222,6.0,8.0,87,0.00,,,0.26,58.000000,,2013-10-19 00:22:00,
2013-10-18 19:32:00,35.0,32.0,-100.00,SW,222,6.0,8.0,87,0.00,,,0.26,58.000000,,2013-10-19 00:32:00,
2013-10-18 19:42:00,35.0,32.0,-100.00,SW,222,6.0,8.0,87,0.00,,,0.26,58.000000,,2013-10-19 00:42:00,
2013-10-18 19:52:00,35.0,32.0,-100.00,SW,222,6.0,8.0,87,0.00,,,0.26,58.000000,,2013-10-19 00:52:00,
2013-10-18 20:21:00,33.0,31.0,-100.00,South,188,5.0,7.0,94,0.00,,,0.26,0.000000,,2013-10-19 01:21:00,
2013-10-18 20:32:00,33.0,31.0,-100.00,South,188,5.0,7.0,94,0.00,,,0.26,0.000000,,2013-10-19 01:32:00,
2013-10-18 20:42:00,33.0,31.0,-100.00,South,188,5.0,7.0,94,0.00,,,0.26,0.000000,,2013-10-19 01:42:00,
2013-10-18 20:52:00,33.0,31.0,-100.00,South,188,5.0,7.0,94,0.00,,,0.26,0.000000,,2013-10-19 01:52:00,
2013-10-18 21:22:00,33.0,32.0,-100.00,SSW,195,7.0,9.0,96,0.00,,,0.26,0.000000,,2013-10-19 02:22:00,
2013-10-18 21:32:00,33.0,32.0,-100.00,SSW,195,7.0,9.0,96,0.00,,,0.26,0.000000,,2013-10-19 02:32:00,
2013-10-18 21:42:00,33.0,32.0,-100.00,SSW,195,7.0,9.0,96,0.00,,,0.26,0.000000,,2013-10-19 02:42:00,
2013-10-18 21:52:00,33.0,32.0,-100.00,SSW,195,7.0,9.0,96,0.00,,,0.26,0.000000,,2013-10-19 02:52:00,
2013-10-18 22:23:00,32.0,31.0,-100.00,South,184,6.0,9.0,97,0.00,,,0.26,0.000000,,2013-10-19 03:23:00,
2013-10-18 22:34:00,32.0,31.0,-100.00,South,184,6.0,9.0,97,0.00,,,0.26,0.000000,,2013-10-19 03:34:00,
2013-10-18 22:44:00,32.0,31.0,-100.00,South,184,6.0,9.0,97,0.00,,,0.26,0.000000,,2013-10-19 03:44:00,
2013-10-18 22:54:00,32.0,31.0,-100.00,South,184,6.0,9.0,97,0.00,,,0.26,0.000000,,2013-10-19 03:54:00,
2013-10-18 23:24:00,33.0,32.0,-100.00,SSW,211,8.0,9.0,97,0.00,,,0.26,0.000000,,2013-10-19 04:24:00,
2013-10-18 23:34:00,33.0,32.0,-100.00,SSW,211,8.0,9.0,97,0.00,,,0.26,0.000000,,2013-10-19 04:34:00,
2013-10-18 23:44:00,33.0,32.0,-100.00,SSW,211,8.0,9.0,97,0.00,,,0.26,0.000000,,2013-10-19 04:44:00,
2013-10-18 23:54:00,33.0,32.0,-100.00,SSW,211,8.0,9.0,97,0.00,,,0.26,0.000000,,2013-10-19 04:54:00,